Powrót do katalogu

BREEZE-M R/B

AktywnyHEO
NORAD 37844·ROCKET BODY·🇷🇺 Russia

Wystrzelony Oct 19, 2011 z Baikonur Cosmodrome

Loading…

Następne Przeloty (najbliższe 24 godziny)

TLE

ŚwieżeSource: Space-Track

Epoka: Sep 13, 2026, 02:42 UTC

1 37844U 11059B   26256.11274957 -.00000188  00000-0  00000-0 0  9997
2 37844  30.9741  19.2405 6638875   3.1584 136.2989  2.27322973123682

Śledź BREEZE-M R/B w czasie rzeczywistym z AllMySat

Download on the App Store